NWS Watch, Warning or Advisory is in effect for Boone County, KY. View Alert


Wilmington, OH NWS (KILN) Doppler Radar Loop using GRLevel3 Software
Last 10 volume scans
Wilmington OH Radar using GRLevel3

 
 

Wilmington, OH NWS Radar Loop
Wilmington OH Radar Loop

Regional Radar Loop
Regional Radar Loop

Eastern US Sector IR Image
Eastern US Sector IR Image

Latest image from the National Oceanic and Atmospheric Administration (NOAA) Geostationary Satellite Server.


SPC Day 1 Categorical Outlook
SPC Day 1 Categorical Outlook

Category Criteria
Thunderstorms - 10% or greater probability of non-severe or near severe thunderstorms.
1: Marginal - 2% tornado probability, or
- 5% severe hail or severe wind probability.
2: Slight - 5% tornado probability, or
- 15% severe hail or severe wind probability WITH OR WITHOUT 10% or greater probability of hail 2 inches or greater in diameter, or wind gusts 75 mph or greater.
3: Enhanced - 10% tornado probability WITH OR WITHOUT 10% or greater probability of an EF2+ tornado, or
- 15% tornado probability, or
- 30% severe hail or severe wind probability WITH OR WITHOUT 10% or greater probability of hail 2 inches or greater in diameter, or wind gusts 75 mph or greater, or
- 45% probability of severe hail or wind.
4: Moderate - 15% tornado probability AND 10% or greater probability of an EF2+ tornado, or
- 30% tornado probability, or
- 45% severe wind probability AND 10% or greater probability of a wind gusts 75 mph or greater, or
- 45% severe hail probability AND 10% or greater probability of hail 2 inches or greater in diameter, or
- 60% severe wind probability, or
- 60% severe hail probability WITH OR WITHOUT 10% or greater probability of hail 2 inches or greater in diameter.
5: High - 30% tornado probability AND 10% or greater probability of an EF2+ tornado, or
- 45% or greater tornado probability WITH OR WITHOUT 10% or greater probability of an EF2+ tornado, or
- 60% severe wind probability AND a 10% or greater probability of a wind gust 75 mph or greater.

NOAA Day 1 National Forecast Map
NOAA Day 1 National Forcast Map

Day 1 Precipitation Forecast
Day 1 Precipitation Forecast


SPC Day 2 Categorical Outlook
SPC Day 2 Categorical Outlook

NOAA Day 2 National Forecast Map
NOAA Day 2 National Forcast Map

Day 2 Precipitation Forecast
Day 2 Precipitation Forecast


SPC Day 3 Categorical Outlook
SPC Day 3 Categorical Outlook

NOAA Day 3 National Forecast Map
NOAA Day 3 National Forcast Map

Day 3 Precipitation Forecast
Day 3 Precipitation Forecast


National Weather Service Regional Observations

Station State Time Temperature Dew Point RH Wind Heat Index Wind Chill Pressure Visibility Weather
Charleston West Virginia 6/23/2017 9:18:00 PM 72.0 70.0 94 NW (310) at 8 68.0 N/A 29.72 2.5 Heavy Rain, Mist
Chicago O'hare Illinois 6/23/2017 8:51:00 PM 75.9 51.1 42 WNW (300) at 17, 29 gusts 77.9 N/A 29.74 10.0 --
Cleveland Ohio 6/23/2017 8:56:00 PM 72.0 66.9 84 W (260) at 8 71.1 N/A 29.69 5.0 Mist
Columbus Ohio 6/23/2017 9:01:00 PM 69.1 69.1 100 W (260) at 3 N/A N/A 29.70 10.0 Light Rain
Covington Kentucky 6/23/2017 9:07:00 PM 69.1 68.0 96 Calm N/A N/A 29.74 2.0 --
Dayton Ohio 6/23/2017 9:19:00 PM 68.0 66.9 96 W (260) at 6 N/A N/A 29.74 10.0 --
Dothan Alabama 6/23/2017 8:53:00 PM 82.0 72.0 72 SSW (210) at 8 86.9 N/A 30.02 10.0 --
Evansville Indiana 6/23/2017 9:01:00 PM 75.0 71.1 88 NW (320) at 7 74.5 N/A 29.80 10.0 --
Fort Wayne Indiana 6/23/2017 8:54:00 PM 70.0 54.0 57 WNW (290) at 6 N/A N/A 29.74 10.0 --
Frankfort Kentucky 6/23/2017 9:13:00 PM 70.0 66.0 87 Calm N/A N/A 29.78 5.0 Light Rain, Mist
Huntsville Alabama 6/23/2017 8:53:00 PM 75.9 75.9 100 SW (230) at 7 74.7 N/A 29.90 10.0 --
Indianapolis Indiana 6/23/2017 8:54:00 PM 69.1 61.0 75 NW (320) at 6 N/A N/A 29.77 10.0 --
Knoxville Tennessee 6/23/2017 9:33:00 PM 73.0 71.1 94 SSW (210) at 22, 30 gusts 69.6 N/A 29.86 10.0 Light Rain
Lexington Kentucky 6/23/2017 8:54:00 PM 68.0 64.9 90 NW (310) at 3 N/A N/A 29.77 9.0 Light Rain
Louisville Kentucky 6/23/2017 8:56:00 PM 75.0 73.0 94 SW (220) at 6 73.4 N/A 29.75 9.0 --
Nashville Tennessee 6/23/2017 8:53:00 PM 79.0 73.9 85 SSW (210) at 7 82.6 N/A 29.82 10.0 --
Noctor/Jackson Kentucky 6/23/2017 9:33:00 PM 66.0 64.0 93 N (10) at 10, 26 gusts N/A N/A 29.74 1.8 Rain, Mist
Paducah Kentucky 6/23/2017 8:53:00 PM 77.0 72.0 85 W (270) at 6 78.4 N/A 29.83 10.0 --
Pittsburgh Pennsylvania 6/23/2017 8:51:00 PM 69.1 68.0 96 WSW (240) at 3 N/A N/A 29.71 10.0 Light Rain
St. Louis Missouri 6/23/2017 8:51:00 PM 81.0 59.0 47 WNW (300) at 7 81.3 N/A 29.85 10.0 --
Wilmington Ohio 6/23/2017 9:29:00 PM 66.9 66.9 100 Calm N/A N/A 29.73 10.0 --

These are regional hourly observations made by the National Weather Service. The observations are usually made between 50 and 59 minutes past the hour and are usually available by 15 minutes past the next hour.


This page will reload automatically every 10 minutes.

35,303 Page Views